GFSFLT2_925_thetae_000.txt.gz
Theta_e
334 334 332 330 324 322 323 324 325 325 326 326 326 324 324 325 327 328 328 327 326 326 326 325 327 327 327 327 328 327 328 331
336 335 334 331 327 327 324 324 325 325 325 325 326 326 325 324 323 323 323 325 326 327 329 330 329 328 328 326 324 326 328 329
338 337 335 333 330 330 330 329 328 328 325 325 327 327 324 324 323 323 322 321 322 323 325 325 325 325 325 325 325 324 325 324
330 333 335 333 333 330 331 330 329 329 328 328 328 327 324 324 321 320 318 317 317 319 318 319 322 322 321 321 323 325 325 323
322 320 320 330 329 329 332 329 329 329 329 327 327 326 323 322 322 321 319 316 316 316 315 316 317 317 317 318 318 319 324 323
320 319 324 329 329 331 331 329 330 328 327 326 323 321 318 318 320 319 320 317 317 317 319 319 318 317 318 317 315 316 317 318
319 318 318 327 327 330 329 329 328 326 323 321 321 321 321 319 319 319 319 318 317 317 318 319 320 320 321 320 320 320 320 318
318 317 316 319 324 324 323 321 319 317 317 316 317 320 320 320 321 320 317 315 313 309 307 307 307 309 311 313 315 317 317 319
317 316 317 318 320 323 322 320 317 314 314 313 314 317 317 317 316 316 316 312 310 309 305 304 304 304 304 303 304 308 307 305
316 314 316 317 316 320 319 316 314 312 311 311 312 312 312 311 311 311 311 308 307 305 304 304 304 304 304 303 304 304 303 303
313 313 313 312 312 314 315 313 313 310 310 311 312 312 309 310 311 311 309 305 305 305 305 304 304 304 304 303 303 303 303 302
312 311 311 310 309 311 311 310 310 310 309 311 312 312 309 307 308 308 307 306 305 305 305 304 304 304 304 303 303 303 303 303
312 311 311 310 309 309 309 309 308 308 308 309 313 310 310 307 306 306 307 306 305 305 305 304 304 304 304 304 304 303 303 303
312 311 311 310 309 309 309 309 308 308 307 307 308 310 310 308 307 305 306 306 305 304 304 305 304 303 304 302 301 302 302 304
313 313 312 312 311 310 309 308 307 307 307 307 306 307 309 308 307 306 305 304 304 304 303 303 303 302 302 303 301 301 302 303
313 313 313 312 311 310 309 309 307 308 308 307 307 307 308 307 306 305 305 304 303 303 301 301 300 299 298 300 299 300 300 301
313 313 313 312 312 311 311 310 309 309 308 307 307 306 306 306 306 305 305 303 302 301 300 297 295 295 295 294 294 295 298 299
314 313 313 312 312 312 312 311 311 309 309 307 306 305 305 306 305 305 302 300 300 300 298 296 296 296 297 297 294 296 296 297
311 311 311 310 310 310 310 310 310 310 310 307 306 304 303 301 300 299 297 295 295 295 296 298 298 297 294 293 293 294 295 296
310 311 310 309 309 309 309 308 308 308 308 307 304 300 298 296 295 295 296 296 296 296 297 297 297 294 294 293 294 294 294 294

GFSFLT2_925_thetae_003.txt.gz
Theta_e
332 331 329 325 322 321 323 322 323 323 324 324 323 322 322 323 324 325 326 324 324 326 327 326 324 327 326 327 325 326 326 328
334 333 332 328 324 324 322 322 323 324 324 324 324 324 323 322 322 323 323 323 324 325 326 328 328 328 327 326 325 326 326 325
335 334 334 331 327 327 326 325 324 325 324 325 325 324 322 321 321 320 320 319 320 321 321 322 323 323 322 322 322 323 323 324
336 336 335 333 330 330 329 328 328 327 326 326 326 325 322 320 319 317 317 316 315 315 316 315 317 319 319 319 318 319 320 324
333 330 331 332 331 331 330 329 328 328 328 326 325 325 323 320 320 319 317 316 312 313 314 313 313 313 313 314 315 316 317 319
324 324 327 330 330 329 330 330 329 328 327 325 325 323 320 316 318 320 319 319 314 314 315 317 316 317 316 316 317 318 319 317
322 320 325 324 326 328 330 329 329 329 326 324 322 320 320 318 318 319 319 318 318 317 314 314 313 311 310 311 311 313 316 318
319 319 320 321 325 326 325 327 327 328 324 322 318 318 319 319 318 320 320 317 314 309 306 304 303 303 304 304 304 304 307 306
318 318 317 318 320 321 322 320 318 317 316 316 315 314 318 318 318 318 318 315 311 309 305 304 304 304 304 304 304 304 304 303
318 316 315 316 316 318 319 319 316 315 313 312 312 312 313 313 312 313 312 311 308 306 304 305 304 304 304 304 303 303 303 303
315 314 313 313 313 313 314 314 314 313 312 311 311 312 311 310 308 309 309 309 305 304 305 305 304 304 304 303 303 303 303 303
313 312 311 310 310 310 310 310 310 310 309 310 310 312 312 310 307 308 310 308 305 305 305 305 304 304 304 304 303 303 303 303
312 311 311 310 310 309 309 309 309 308 308 308 308 307 309 312 308 306 307 308 306 305 305 305 304 304 304 303 302 303 302 301
311 312 311 311 311 311 310 310 309 309 308 308 307 307 307 311 309 307 306 306 307 305 305 305 304 304 302 301 299 300 300 299
312 312 312 311 311 310 310 309 308 309 309 308 308 307 307 309 309 308 307 305 307 306 305 304 303 302 301 300 299 299 299 300
312 311 311 311 310 310 309 309 307 309 309 310 310 309 307 306 306 309 307 305 306 305 303 303 302 300 298 297 295 297 295 295
312 312 312 312 311 311 310 310 310 310 310 309 309 308 306 306 306 308 306 304 304 303 302 300 297 295 295 296 297 295 295 296
311 311 310 310 309 309 308 308 308 308 308 308 308 308 307 305 304 306 305 303 301 297 295 295 296 295 295 295 294 294 294 294
310 310 309 308 308 308 307 306 306 307 306 306 307 306 303 302 303 302 299 297 295 296 298 298 298 299 299 297 296 294 293 294
309 308 307 307 307 304 304 304 304 304 304 304 304 302 298 297 297 297 297 296 297 297 297 298 297 298 297 294 294 292 293 293

GFSFLT2_925_thetae_009.txt.gz
Theta_e
323 323 322 322 321 321 321 321 322 322 322 323 322 322 322 322 321 321 321 320 320 321 322 324 326 327 326 325 325 325 326 326
327 327 326 324 322 323 323 321 322 322 322 322 322 321 321 321 320 319 317 317 318 319 319 320 322 323 322 321 320 322 323 323
331 330 330 327 325 325 324 325 324 323 324 323 322 322 322 320 317 317 315 316 316 316 315 315 316 317 318 319 318 317 318 320
332 332 332 329 327 327 326 326 326 326 326 325 324 324 323 321 319 318 317 316 315 314 313 312 311 313 314 315 315 314 318 319
333 333 332 329 329 328 327 327 327 327 327 326 325 325 323 323 320 316 316 318 316 316 313 313 314 313 313 313 312 313 316 318
335 333 332 327 326 327 328 329 328 328 327 327 326 325 323 323 318 317 316 317 316 315 314 314 311 310 309 307 305 308 313 314
335 334 328 322 324 327 328 328 328 329 328 327 327 325 322 320 318 317 317 317 317 317 315 311 305 303 303 303 303 303 303 308
334 330 323 322 322 323 324 326 327 326 326 325 326 324 321 317 315 314 314 315 317 318 314 309 305 303 304 304 303 303 303 303
332 324 320 318 319 319 319 319 319 319 317 317 317 316 314 314 313 312 311 312 314 317 314 310 305 304 304 304 303 303 303 303
327 322 318 316 317 316 314 314 315 316 314 314 313 312 312 312 311 310 310 310 311 314 313 310 306 305 305 305 303 302 303 303
322 319 317 315 315 313 312 312 312 312 311 311 311 310 310 311 311 310 310 310 309 309 310 308 307 306 306 305 304 303 303 302
318 317 315 314 314 312 311 310 310 310 309 309 309 309 309 310 310 310 311 311 310 309 308 308 306 306 305 305 305 305 303 303
316 315 313 313 311 309 308 309 308 309 309 309 309 309 308 307 307 308 309 311 311 309 308 307 306 305 306 306 305 304 304 304
311 309 307 307 307 307 307 308 309 309 309 309 308 308 308 307 307 307 307 309 310 310 309 308 307 306 306 306 307 306 303 303
307 307 308 309 309 309 308 308 308 307 307 306 305 305 304 304 304 305 306 307 308 308 309 308 308 307 305 306 308 307 305 302
309 309 308 308 307 306 305 305 305 305 304 303 301 302 303 304 304 303 304 306 307 307 307 307 307 308 304 303 303 302 305 306
308 308 308 307 307 305 305 305 304 304 303 303 302 301 301 302 302 302 303 303 305 305 305 305 305 305 304 303 300 299 298 299
308 308 308 307 306 305 305 304 304 304 303 302 301 301 301 301 301 301 301 301 300 300 298 299 299 299 298 298 298 298 297 296
308 307 307 306 306 305 304 304 304 303 302 300 300 300 300 299 299 299 299 298 298 298 298 298 297 297 296 295 296 295 295 294
307 307 307 306 305 305 304 304 303 301 300 299 299 298 298 298 298 298 297 297 297 298 297 297 296 294 293 292 292 292 292 292

GFSFLT2_925_thetae_012.txt.gz
Theta_e
329 329 327 322 322 322 322 323 322 322 322 323 322 322 322 321 321 321 321 320 320 320 320 322 323 324 325 324 324 325 329 330
331 331 330 330 329 323 323 322 322 323 322 323 322 323 323 323 320 321 318 317 317 317 317 317 317 319 321 321 321 322 325 327
333 333 332 331 329 328 325 325 324 324 327 326 327 327 327 325 321 318 317 315 315 314 314 313 312 315 315 315 317 321 322 322
335 335 334 332 327 330 330 329 329 331 331 331 329 329 328 324 324 319 316 315 316 315 314 313 315 316 317 317 317 319 318 319
335 337 336 333 329 328 328 327 328 329 332 332 330 329 328 327 326 323 323 322 320 320 320 318 319 318 317 317 316 316 315 316
336 337 337 335 330 328 328 327 328 328 329 332 330 328 327 327 324 322 321 320 321 320 319 320 318 316 314 312 312 311 311 313
338 338 337 332 330 327 328 329 327 328 328 327 329 326 325 324 322 320 319 319 318 318 318 318 314 312 311 311 310 310 310 310
337 338 336 328 326 328 326 326 326 326 324 324 326 326 323 321 319 317 317 316 317 317 316 315 313 312 310 310 309 309 309 310
336 336 331 327 325 324 322 321 321 320 320 322 323 323 320 320 318 317 316 316 317 317 317 315 314 311 310 309 309 309 308 309
332 331 327 325 323 322 320 319 319 318 318 319 319 319 319 319 318 317 316 316 316 316 315 314 313 311 310 309 309 308 308 308
329 329 325 323 322 320 320 320 319 318 317 316 316 316 316 316 316 316 316 316 315 315 314 314 313 311 310 309 309 308 308 307
328 326 323 322 319 318 315 315 314 314 313 313 313 313 313 314 314 315 316 316 315 314 314 313 312 312 310 309 308 309 308 308
322 320 315 315 314 313 313 313 312 313 313 312 312 312 311 311 311 312 312 313 314 314 314 314 314 312 311 310 309 309 309 308
313 312 311 311 311 311 312 312 313 312 312 311 310 308 308 308 309 309 309 310 311 312 313 314 314 313 312 311 312 310 310 309
313 313 312 312 312 312 311 312 312 311 309 308 307 306 306 306 306 306 307 308 308 309 310 311 312 313 312 312 313 313 311 309
313 312 312 311 310 310 310 310 310 309 308 307 306 305 305 304 304 305 306 306 306 307 307 309 310 311 311 312 311 311 313 312
313 312 311 311 310 309 309 309 308 307 307 306 304 303 303 303 303 304 304 305 306 307 307 307 308 309 309 309 310 309 308 308
313 312 311 310 310 308 307 308 307 306 305 304 303 302 302 302 302 303 304 304 304 304 303 303 303 303 303 303 303 301 303 303
312 311 311 309 309 308 306 306 305 305 304 303 302 301 301 301 302 303 303 302 302 301 299 298 297 296 295 294 294 293 293 294
312 311 310 308 308 307 305 306 305 303 302 301 300 300 300 301 302 301 301 301 300 301 300 297 294 293 293 292 292 292 292 292

GFSFLT2_925_thetae_015.txt.gz
Theta_e
328 328 326 321 321 322 322 322 322 323 323 323 322 322 321 321 319 319 317 315 316 317 317 317 317 319 321 321 322 322 323 327
330 330 329 330 331 323 323 322 323 323 324 323 323 328 327 326 323 322 316 315 315 314 314 313 313 312 313 315 316 320 324 324
331 331 329 328 326 328 326 325 324 326 329 330 329 329 327 326 325 321 318 316 315 316 314 313 312 315 317 317 314 322 321 320
331 333 331 329 325 328 328 327 328 329 330 330 329 329 328 326 326 325 324 323 322 320 320 319 319 319 318 318 319 318 317 317
331 337 334 330 327 325 326 326 327 328 330 330 328 329 328 327 325 324 324 323 322 321 321 320 320 319 318 317 316 315 315 315
331 336 337 333 328 325 325 326 326 326 328 328 326 325 325 324 323 321 320 319 319 319 319 319 320 319 315 314 313 313 311 312
330 333 339 332 329 326 326 327 326 327 326 325 325 324 323 322 321 320 318 318 318 318 318 318 318 316 314 313 312 312 312 312
330 333 337 332 325 326 326 326 325 325 323 322 323 323 323 321 320 319 318 317 317 317 317 318 317 315 314 313 312 312 311 311
331 334 336 330 325 324 323 321 320 320 320 320 321 321 320 320 319 319 318 318 317 317 317 317 317 316 314 313 312 312 311 311
328 333 335 329 323 322 321 320 320 320 320 320 320 320 320 319 318 318 318 318 318 317 316 316 316 316 315 314 312 311 311 311
327 333 332 327 323 321 321 321 320 319 319 317 317 317 316 317 317 317 317 317 317 317 316 316 316 316 315 314 313 312 311 311
328 331 328 325 322 320 318 317 317 316 316 316 316 316 315 315 315 315 315 315 315 315 316 316 316 316 315 314 314 312 311 311
327 325 320 318 317 316 316 316 315 315 316 315 315 314 312 312 312 311 312 311 312 312 313 314 315 315 316 316 316 314 313 312
318 317 316 315 315 315 315 315 315 315 315 313 312 311 310 309 309 309 308 309 309 310 311 312 313 314 316 316 319 316 315 313
316 316 315 315 314 314 314 314 314 314 313 312 311 310 309 308 307 307 307 307 308 308 309 309 311 311 312 314 316 317 316 314
316 315 315 314 314 313 314 313 313 313 312 311 310 308 307 306 305 305 306 306 307 307 307 309 309 310 310 309 311 313 315 316
316 315 315 314 314 312 312 312 311 311 310 309 307 306 305 304 304 304 305 305 306 306 307 307 307 307 308 308 307 308 308 308
316 315 314 314 313 312 311 310 309 308 308 306 305 304 303 303 303 303 304 305 305 305 305 303 302 301 300 300 298 299 300 300
315 315 314 313 312 311 310 309 308 307 306 305 303 302 301 301 302 303 303 303 302 302 301 300 298 296 295 295 294 293 293 293
315 314 314 313 312 311 310 309 307 305 304 302 301 300 300 301 302 303 302 301 300 297 297 297 295 295 295 294 293 294 294 294

GFSFLT2_925_thetae_018.txt.gz
Theta_e
325 320 321 321 320 321 322 321 321 321 322 322 321 323 325 323 320 318 315 314 313 313 312 312 311 311 310 311 312 314 321 326
329 330 330 332 329 320 321 321 321 322 325 325 327 329 327 326 325 322 319 314 315 314 315 313 311 310 316 316 315 314 323 321
330 329 328 329 329 325 328 322 326 330 330 330 330 329 329 327 324 325 324 323 321 321 319 319 318 317 318 317 317 319 320 318
331 330 329 327 325 328 328 327 330 330 330 330 330 328 328 327 327 326 325 323 321 323 321 320 320 321 319 318 319 319 317 315
332 334 331 330 327 324 327 327 327 329 331 329 328 327 326 325 324 324 321 321 322 320 321 320 321 320 320 318 317 316 314 313
335 335 334 331 328 326 326 327 326 327 327 327 325 325 324 322 322 320 319 318 318 319 318 318 318 319 318 316 314 313 313 312
330 334 337 332 326 326 326 326 328 325 326 324 324 324 323 322 321 320 319 318 318 317 317 318 318 317 316 316 314 313 312 312
330 333 336 333 326 326 326 327 325 324 322 322 323 323 323 321 320 320 319 319 318 317 317 318 318 318 317 316 314 313 312 312
330 330 335 332 326 325 324 322 320 320 320 320 321 321 320 320 320 319 319 319 318 318 318 318 317 317 317 317 315 313 312 312
329 333 336 333 326 323 322 321 320 320 320 320 320 320 319 318 318 318 318 318 318 318 318 318 318 317 317 317 316 315 313 312
325 333 334 332 325 323 322 322 320 321 319 317 317 316 316 316 316 316 316 315 316 316 317 317 318 318 317 317 316 316 314 312
327 331 329 326 323 321 320 319 318 317 317 317 316 315 315 314 312 313 313 313 313 313 313 314 314 316 316 316 317 316 314 315
327 323 320 319 318 316 316 316 316 316 316 316 315 313 312 311 310 310 309 309 310 309 310 311 312 313 314 315 315 316 317 315
318 318 317 316 316 316 316 315 316 315 315 314 313 312 311 310 309 308 308 308 308 308 309 311 311 311 313 314 313 313 314 314
317 316 316 315 314 315 315 315 314 314 314 313 312 311 309 308 306 305 306 306 307 307 306 308 310 310 310 311 312 311 311 311
316 316 315 315 315 314 313 314 313 312 312 311 309 308 307 305 304 304 304 305 305 306 307 307 308 307 307 306 305 304 308 309
317 316 316 315 314 314 313 312 311 310 309 309 307 306 304 303 302 302 303 303 304 306 306 305 303 302 301 300 299 299 302 302
317 316 315 315 313 312 312 311 310 309 308 306 304 302 302 302 302 302 302 304 303 302 302 302 301 300 298 297 297 297 297 296
316 316 315 314 313 313 312 310 308 307 305 303 301 301 301 301 302 303 302 302 300 300 299 299 298 297 296 296 295 294 293 293
315 315 314 312 312 311 310 308 306 305 302 301 300 300 300 300 299 300 300 298 298 298 298 297 297 296 296 296 295 294 294 294

GFSFLT2_925_thetae_024.txt.gz
Theta_e
318 318 318 316 316 315 318 318 319 318 321 326 326 326 324 323 324 323 321 321 320 320 319 319 318 317 318 318 317 317 319 319
324 325 324 317 312 315 316 320 325 325 328 328 327 326 325 326 325 324 321 322 321 320 319 320 320 319 319 318 318 317 318 317
328 327 326 323 319 317 324 328 328 328 329 329 327 327 326 326 325 323 321 321 320 318 318 319 319 319 318 318 317 316 316 316
328 327 327 325 325 323 328 328 328 329 329 328 327 327 327 326 325 321 320 319 318 317 318 318 318 317 318 319 318 317 314 313
328 325 326 327 327 327 326 328 329 329 328 327 326 327 324 323 321 318 319 318 318 318 318 317 316 316 317 317 317 317 316 314
327 327 328 327 326 327 328 328 329 330 327 326 325 324 322 321 320 319 319 318 319 318 317 317 317 316 317 317 317 317 315 314
328 328 328 326 325 326 327 327 330 327 327 325 320 323 321 320 321 320 319 319 319 319 318 317 317 317 318 317 317 317 317 315
328 322 323 323 325 325 325 327 325 326 325 323 318 317 319 320 319 318 319 318 317 315 314 314 314 315 316 317 317 317 317 317
329 327 326 327 327 325 325 326 324 325 323 321 320 320 320 320 318 317 315 314 314 313 312 312 312 312 311 311 312 313 314 314
333 329 327 325 326 324 323 325 320 320 320 320 320 320 319 317 315 314 311 310 310 309 308 307 307 307 306 306 308 308 308 310
333 331 328 327 326 323 321 320 320 319 317 318 316 315 314 313 311 310 309 308 307 307 306 306 306 306 305 304 303 306 309 310
331 330 328 326 321 320 320 316 315 316 314 313 312 310 309 308 307 306 305 305 305 305 305 305 305 303 304 304 306 306 306 307
317 316 318 317 315 315 314 314 312 312 311 310 309 308 306 305 304 303 302 302 302 302 302 302 302 304 307 306 306 306 308 308
315 314 315 315 314 313 313 313 312 310 309 308 307 306 306 304 302 300 300 300 299 300 301 304 306 306 304 305 304 305 304 302
315 315 315 314 314 314 313 313 311 310 308 307 305 305 304 301 299 300 300 301 303 304 305 304 304 303 302 301 302 302 299 300
315 315 315 314 314 313 312 311 310 307 306 305 305 304 302 299 299 300 300 300 300 301 301 300 300 299 299 298 298 298 297 297
315 315 314 314 313 312 311 310 308 306 306 305 304 301 299 298 299 298 298 299 299 299 298 298 297 297 296 296 296 296 295 295
315 313 312 313 312 311 311 309 306 305 304 303 300 299 299 299 298 296 297 298 298 297 297 297 295 295 295 295 295 295 294 294
314 313 311 310 310 309 308 306 305 304 303 301 300 299 299 298 296 296 297 296 296 295 296 295 294 294 295 295 295 295 295 294
313 311 309 308 307 306 304 303 302 301 301 300 299 299 298 296 294 295 296 296 295 295 295 294 293 294 293 293 294 293 293 292

GFSFLT2_925_thetae_027.txt.gz
Theta_e
320 318 318 318 318 318 318 318 318 317 322 324 324 323 323 324 323 321 320 320 319 318 318 318 318 318 317 317 316 316 318 317
320 318 315 315 315 316 316 316 318 325 326 326 325 325 325 325 324 321 321 320 318 317 318 318 318 318 317 318 318 316 314 315
323 321 316 312 314 316 321 325 326 327 327 327 326 326 326 325 324 321 320 319 318 318 318 318 317 317 316 317 317 317 316 314
325 324 322 317 318 323 326 328 327 328 329 327 326 327 326 324 323 321 321 319 319 318 318 318 317 316 316 316 316 316 316 315
326 326 323 324 322 326 327 328 328 328 328 327 326 327 326 323 322 320 319 319 318 318 317 317 317 317 317 317 317 317 316 316
326 327 326 325 326 325 327 327 329 329 328 326 325 324 322 321 320 319 319 319 319 319 318 316 315 314 314 316 317 317 317 317
327 327 328 327 327 327 327 327 328 329 328 326 323 323 322 320 320 319 318 318 318 316 315 314 313 312 312 313 314 314 315 316
328 327 327 326 326 326 327 327 328 329 327 325 323 322 321 320 319 318 316 314 313 311 310 309 309 308 308 307 308 308 308 308
327 328 325 325 325 325 326 326 327 325 326 323 321 320 320 319 316 313 311 309 308 308 308 307 306 305 304 304 303 303 302 305
328 328 327 327 325 323 324 324 321 323 322 320 320 318 314 312 311 309 308 307 307 306 305 305 305 304 303 303 302 302 302 303
329 326 326 325 326 321 319 318 318 317 317 315 312 310 309 308 306 305 305 305 304 303 303 302 302 301 301 301 301 303 304 306
329 328 326 319 321 316 315 315 314 313 312 310 309 308 307 307 306 304 303 302 301 300 299 299 300 304 305 305 304 303 305 305
327 327 323 316 315 314 313 312 311 310 309 308 308 307 307 305 304 302 301 299 301 302 304 304 304 305 304 301 302 304 300 302
316 316 315 315 314 313 313 311 310 309 308 308 307 306 304 303 301 300 297 296 298 300 302 302 302 302 300 300 299 299 300 297
314 314 314 314 314 313 312 311 310 307 306 305 304 304 303 301 298 297 297 296 296 298 299 298 299 299 298 298 297 297 297 298
315 314 314 314 314 314 313 312 310 306 305 304 304 302 301 298 298 298 297 296 298 298 297 298 297 297 296 296 296 296 297 295
314 314 313 313 312 312 312 311 309 306 305 305 303 301 299 298 298 298 295 296 297 296 296 296 295 294 295 295 295 294 295 295
313 313 313 312 312 311 310 309 307 306 304 304 303 301 299 299 298 297 295 296 295 296 295 295 294 293 294 294 294 294 294 294
312 312 311 311 310 309 308 307 305 304 303 302 301 300 299 299 298 295 294 295 296 295 294 294 293 292 292 292 293 293 293 292
311 310 309 309 308 306 304 304 303 302 301 301 300 299 299 299 296 294 294 294 294 294 294 293 293 292 291 292 292 292 291 292

GFSFLT2_925_thetae_030.txt.gz
Theta_e
328 325 323 321 318 318 318 318 317 317 322 323 322 323 323 322 320 320 319 318 317 317 317 316 317 317 317 317 317 316 314 313
321 319 318 318 317 317 318 318 317 322 324 324 324 324 324 323 321 320 320 319 318 318 318 317 316 316 316 316 316 316 316 315
318 317 317 314 316 316 317 318 324 325 326 326 325 325 325 324 323 321 320 319 318 318 318 318 317 316 316 316 317 316 316 316
320 317 313 314 315 318 322 324 326 327 327 326 326 326 325 324 324 322 320 319 318 318 317 317 317 316 315 316 317 317 317 316
322 320 315 315 318 323 325 326 326 327 327 327 326 326 326 324 322 319 319 318 318 318 318 317 315 313 312 312 314 315 316 316
324 323 320 318 322 324 326 327 327 328 327 326 324 325 322 321 319 319 318 318 317 316 314 313 311 310 310 309 309 310 311 312
325 325 323 323 322 323 325 326 328 328 329 327 324 323 321 320 319 318 316 313 311 310 309 308 307 307 306 305 304 303 303 304
326 326 326 325 325 326 325 325 326 328 329 327 323 322 321 320 317 313 311 309 308 307 307 306 305 305 304 303 302 302 301 301
326 326 327 326 325 325 325 326 327 327 327 323 321 319 318 315 311 309 307 306 306 306 305 304 303 302 301 301 300 300 302 302
327 327 325 324 324 323 326 322 323 323 320 318 316 313 311 310 309 307 306 305 304 303 302 301 300 300 301 301 302 302 303 305
327 326 325 326 324 322 319 316 316 315 314 312 310 309 309 308 307 305 304 303 303 301 300 302 303 303 302 303 301 299 303 302
326 326 325 322 318 316 314 314 312 312 311 310 309 309 308 307 306 305 305 302 298 296 297 298 301 301 300 300 298 300 299 299
327 326 319 316 313 313 313 311 311 310 310 309 309 308 306 306 304 301 298 296 295 295 296 298 298 298 298 297 297 302 298 298
326 322 316 314 313 313 313 311 310 309 308 307 306 306 305 304 301 298 297 297 295 294 296 296 297 298 297 297 296 297 298 295
314 313 313 313 314 313 312 311 308 307 306 306 306 306 304 301 298 297 297 296 295 296 296 296 296 296 295 297 295 295 295 295
313 313 313 313 313 313 313 311 310 307 306 305 305 303 301 299 298 298 297 294 293 294 295 294 295 294 294 295 294 295 294 294
314 314 313 313 313 312 312 311 309 306 306 306 304 301 300 299 298 298 297 294 294 295 295 295 295 294 293 294 293 292 293 294
314 313 313 313 312 311 311 310 308 306 305 304 302 301 300 299 298 298 296 294 295 295 294 293 293 293 292 293 292 292 292 293
312 312 312 311 310 309 308 307 305 304 303 302 301 300 299 299 298 298 297 294 295 295 294 294 293 293 292 292 291 292 292 292
311 311 310 309 308 307 305 304 303 303 302 301 300 300 299 299 299 298 295 294 295 295 295 293 292 291 291 291 291 291 289 287

GFSFLT2_925_thetae_033.txt.gz
Theta_e
333 330 328 327 324 321 318 318 317 318 320 320 322 322 321 320 320 320 319 318 317 317 316 316 316 315 316 316 316 315 315 315
330 328 327 324 320 319 318 317 318 322 323 323 323 323 323 321 320 320 319 318 317 317 317 317 316 316 314 315 316 316 316 317
328 325 322 319 319 319 318 317 321 324 324 324 324 324 324 323 320 319 318 318 317 317 317 317 317 316 315 313 314 316 316 317
323 320 319 317 318 319 318 321 323 325 326 325 325 325 324 323 322 320 319 318 318 318 317 317 315 313 311 311 311 311 313 314
320 318 316 317 318 319 322 323 325 326 326 326 326 326 326 325 322 319 318 318 317 316 314 312 310 309 308 307 307 308 309 310
321 319 317 318 318 321 323 325 326 327 327 327 327 326 323 321 318 318 317 315 313 311 309 308 308 307 306 305 305 304 305 305
323 322 320 319 320 321 323 325 326 327 327 328 324 322 320 319 317 315 312 310 309 309 308 307 307 306 305 305 304 304 302 305
323 324 324 322 323 324 324 323 325 326 327 325 323 321 319 317 313 311 310 308 307 306 305 305 304 303 303 302 302 304 305 305
324 325 325 326 325 324 324 324 325 325 325 322 321 319 316 313 311 309 307 306 305 305 305 304 304 303 304 304 304 304 304 305
325 325 323 322 324 324 323 322 322 320 320 319 316 313 311 311 308 306 305 305 303 301 301 302 303 303 302 303 302 301 304 303
326 325 325 321 321 319 324 319 318 316 314 312 310 309 308 307 306 305 302 299 297 298 300 301 301 300 299 301 298 298 303 301
325 325 325 322 321 323 319 313 312 311 311 308 307 307 306 306 304 301 298 297 298 298 299 299 300 299 298 298 297 299 301 300
325 325 325 324 322 312 309 310 309 308 307 307 306 306 306 304 300 297 297 296 294 294 297 298 297 297 298 297 298 302 299 298
325 326 324 319 313 311 312 310 308 307 306 305 306 305 302 300 298 297 297 296 293 293 295 296 297 297 296 297 298 297 298 295
322 322 318 314 312 311 310 308 306 305 304 305 306 302 301 299 298 298 297 296 296 294 295 296 295 296 295 295 296 296 295 295
319 315 313 312 311 311 311 310 310 307 306 307 303 302 301 299 298 298 298 297 295 296 296 296 296 295 294 295 294 294 294 294
312 312 311 311 311 311 311 310 309 307 307 305 302 302 301 299 299 298 298 297 295 295 297 296 296 295 294 293 293 293 292 293
312 312 312 312 311 311 310 309 308 306 303 302 302 301 300 299 299 298 298 297 296 297 297 296 295 294 294 293 293 292 291 291
313 313 312 311 310 310 308 306 304 303 302 302 301 301 300 299 299 298 298 297 295 296 296 295 295 294 293 292 292 292 292 292
312 311 311 309 309 307 304 303 303 303 302 301 301 300 299 299 298 298 298 296 294 295 295 295 295 295 293 293 292 292 291 290

GFSFLT2_925_thetae_036.txt.gz
Theta_e
338 337 335 330 326 322 320 319 317 318 319 320 320 319 319 319 319 319 318 318 318 318 317 316 316 315 313 313 314 315 319 318
333 333 332 331 329 321 320 319 319 321 321 322 322 321 320 320 321 319 318 318 318 317 317 316 317 316 314 312 312 317 317 317
332 331 331 328 327 326 321 320 322 323 324 323 325 326 326 325 321 319 318 317 317 317 317 317 317 315 312 311 314 315 315 315
332 330 329 328 325 326 326 325 327 329 328 328 328 329 328 326 321 319 318 318 318 318 317 316 315 314 314 313 313 313 313 312
327 328 327 325 324 326 326 328 329 330 330 330 330 330 330 328 324 322 322 319 319 318 316 314 314 313 312 312 312 311 311 310
325 325 326 326 325 326 328 328 330 330 331 330 331 329 327 324 322 321 319 318 317 315 314 314 313 312 311 311 310 310 310 310
326 325 324 325 326 327 328 329 330 331 331 329 327 326 324 322 319 318 316 315 314 313 312 312 311 311 310 309 308 308 309 308
328 327 326 325 327 328 328 328 328 328 326 326 323 324 322 319 317 315 313 311 311 311 310 310 309 309 308 307 307 307 306 306
328 329 328 327 325 325 325 324 325 325 324 323 321 319 318 316 314 311 310 310 310 309 308 306 306 305 304 303 304 303 303 305
328 326 325 323 322 321 321 321 321 322 321 317 316 313 311 311 311 310 309 308 305 304 303 303 303 303 302 301 302 301 300 305
327 326 324 322 321 319 318 320 321 315 312 311 310 308 309 310 309 307 305 304 303 302 301 301 302 302 300 300 300 300 300 302
327 327 323 319 317 317 320 319 313 310 309 308 309 309 309 308 306 304 303 302 301 301 301 301 300 301 299 300 300 300 301 302
327 325 324 325 317 321 314 311 309 310 309 309 309 309 306 304 303 303 302 301 301 300 299 299 299 300 299 298 298 300 301 300
326 325 325 323 321 317 315 314 312 311 309 309 309 306 304 303 302 302 301 300 301 301 300 300 299 299 299 298 300 299 299 299
327 327 326 322 317 316 314 312 311 310 309 309 307 305 304 303 302 301 302 301 300 301 300 300 299 298 298 298 300 299 297 296
326 323 321 318 316 314 313 315 314 312 311 309 306 305 304 302 302 302 302 301 301 300 299 300 299 298 297 296 296 296 297 297
321 319 317 315 314 315 315 314 313 311 310 307 306 305 304 303 302 302 302 301 301 301 300 299 298 297 297 295 295 294 294 294
316 315 315 315 315 314 314 313 311 309 307 305 304 303 303 302 302 302 302 302 301 301 300 298 298 297 296 295 294 294 293 293
317 316 315 315 314 313 312 309 307 306 306 304 304 303 303 302 302 301 300 300 300 299 299 298 297 297 296 295 294 293 293 292
316 316 314 313 311 310 308 307 306 305 305 304 303 302 301 299 298 297 297 297 297 298 298 297 296 295 295 295 293 292 291 291

GFSFLT2_925_thetae_039.txt.gz
Theta_e
338 338 336 332 328 326 322 320 318 318 319 318 318 319 319 318 318 318 318 318 317 317 316 316 315 314 312 312 316 317 319 318
337 335 334 333 329 324 321 318 319 320 321 320 319 319 319 320 321 318 318 318 317 317 317 316 316 314 312 313 316 317 317 316
331 330 330 329 327 324 321 320 322 321 322 322 325 325 325 327 324 319 317 317 317 317 317 316 315 317 315 314 315 316 315 314
331 331 329 326 324 325 325 325 327 328 328 327 329 328 328 327 321 318 318 318 318 317 316 316 317 317 316 316 316 315 315 314
329 329 328 325 325 325 325 327 329 330 330 330 331 329 328 328 326 323 323 320 321 319 319 318 317 317 316 315 314 314 314 314
326 326 326 325 325 326 327 329 329 330 330 331 330 329 329 327 324 323 322 320 320 319 318 317 316 315 314 314 313 312 312 312
324 324 326 328 328 329 329 330 330 331 330 331 330 328 328 325 323 321 320 318 317 316 315 315 314 313 313 311 311 310 310 309
325 325 326 328 330 330 330 329 330 331 329 327 325 325 326 324 321 319 317 315 314 313 312 311 310 310 309 308 306 306 307 306
329 330 329 330 329 328 326 324 324 325 324 324 324 324 321 320 316 313 313 312 310 309 308 307 307 306 306 305 304 303 305 303
330 330 329 326 324 321 320 321 321 321 321 320 318 317 314 313 313 312 311 309 308 306 305 305 305 304 304 303 301 302 303 302
330 328 326 321 318 318 319 319 320 318 316 314 312 312 312 312 311 309 307 306 305 305 303 302 302 302 302 302 301 302 302 302
330 328 327 323 317 315 317 317 318 313 311 310 311 312 312 311 309 308 306 305 304 303 303 302 302 301 302 302 301 300 301 304
329 328 325 322 319 319 318 317 312 312 311 312 312 312 309 308 307 306 305 304 303 303 303 302 302 301 300 301 300 300 301 301
330 328 325 327 320 322 321 317 315 315 313 313 312 310 308 306 306 305 304 303 303 302 303 302 302 300 300 300 301 299 300 300
330 328 327 325 324 320 318 317 315 314 313 313 311 308 307 306 305 304 303 303 303 303 302 302 301 300 299 299 301 300 298 298
328 326 325 323 319 318 317 316 315 315 314 313 311 308 307 305 304 304 304 303 303 302 302 301 300 300 299 298 298 298 298 297
326 325 322 319 318 317 317 317 317 315 314 313 310 308 306 305 304 304 304 303 302 302 302 301 301 300 299 298 298 297 296 296
323 321 319 318 317 318 317 316 314 313 312 309 307 305 304 304 304 304 303 302 301 300 300 299 300 300 299 298 297 296 296 295
320 319 318 317 318 317 315 314 311 309 308 306 305 304 303 303 303 301 299 298 298 298 298 299 300 299 298 297 296 296 295 294
319 318 318 318 316 314 312 309 307 307 306 305 303 303 301 300 298 298 297 297 296 297 297 298 298 298 297 296 295 295 294 293

GFSFLT2_925_thetae_042.txt.gz
Theta_e
334 335 335 331 328 324 321 318 316 316 317 317 318 317 316 316 316 316 316 316 316 316 316 316 314 314 314 314 316 316 316 316
334 334 333 328 324 321 319 317 317 319 318 318 318 318 318 322 320 317 316 316 316 316 316 316 315 315 315 315 316 316 315 315
334 331 327 324 322 321 318 318 319 320 320 319 323 324 325 325 320 317 316 317 317 317 316 316 317 318 315 316 316 315 315 315
333 332 331 328 324 323 320 320 322 323 322 327 329 329 327 326 319 317 319 318 321 319 319 318 318 317 317 316 315 314 314 314
330 328 326 325 322 324 324 328 329 329 329 329 329 329 326 327 325 324 324 321 322 320 319 318 317 316 315 314 313 313 312 312
330 327 324 325 325 326 327 329 329 329 330 329 329 328 328 326 325 323 322 320 319 318 317 316 314 313 313 312 311 310 309 309
326 326 326 325 326 327 330 330 329 328 329 329 329 328 328 325 324 321 319 317 316 315 313 312 310 309 309 308 307 306 305 307
325 326 328 328 330 329 328 328 328 329 327 326 326 326 326 324 321 318 315 314 312 310 309 307 307 307 306 306 305 303 303 305
325 326 330 330 330 329 326 324 324 321 322 322 324 324 323 321 318 315 313 312 309 308 306 305 305 304 303 304 304 301 302 303
329 331 330 328 325 323 321 320 320 320 320 321 321 319 318 315 314 312 308 308 307 306 304 303 302 302 302 302 303 302 302 302
331 329 327 325 322 320 321 320 319 318 318 318 316 313 313 313 311 309 307 307 305 304 303 303 303 303 302 302 302 302 301 300
330 327 322 319 320 320 320 320 318 317 317 315 311 312 312 311 309 308 306 305 304 304 304 303 303 303 302 301 301 301 300 301
329 327 324 321 320 318 318 316 317 313 313 311 312 313 310 309 308 306 306 305 304 303 303 303 303 302 302 301 301 300 299 300
329 327 326 324 323 320 319 318 315 314 313 313 313 311 309 307 307 306 305 304 303 304 303 303 303 302 301 301 299 299 300 299
330 328 326 326 322 324 322 317 316 316 314 314 313 310 308 307 306 304 304 304 304 303 303 303 303 302 301 302 299 298 298 298
330 329 327 327 325 321 319 317 316 315 314 314 311 309 309 307 305 305 304 304 303 303 303 302 302 302 301 300 299 299 297 297
331 329 326 324 320 318 317 318 316 315 314 314 312 310 309 307 305 305 304 304 303 302 302 301 301 301 301 300 299 298 298 297
329 326 325 320 319 318 317 318 315 314 313 312 310 308 305 304 304 304 303 300 299 298 298 298 298 299 300 300 299 298 297 297
327 324 320 319 318 318 318 316 314 310 310 309 307 305 304 303 302 300 299 298 297 297 297 298 298 298 299 299 298 296 296 296
323 321 319 319 318 318 316 313 310 308 308 307 305 303 302 300 299 298 297 296 296 296 296 297 297 299 298 298 297 296 295 295

GFSFLT2_925_thetae_045.txt.gz
Theta_e
330 331 331 328 324 320 317 316 314 314 316 316 314 314 314 314 314 315 315 315 315 315 315 314 316 315 315 316 316 315 315 316
324 330 330 326 322 319 316 315 316 317 316 316 315 315 315 315 315 315 315 316 316 316 315 316 318 317 316 316 316 316 314 314
329 329 326 322 320 317 316 319 318 317 316 318 320 323 324 318 315 315 316 316 319 318 317 318 318 317 316 315 315 314 313 312
329 326 323 321 318 316 318 320 319 321 324 324 327 326 327 322 318 320 322 321 320 319 318 317 316 316 315 314 313 312 312 311
328 329 324 318 317 319 320 322 324 324 327 329 329 326 324 325 323 324 323 321 319 318 316 316 315 313 312 311 310 309 307 308
332 331 324 319 319 322 328 328 329 328 330 329 329 328 328 326 324 323 319 316 317 317 315 314 311 309 307 308 306 305 304 303
325 325 322 323 324 325 327 329 330 330 329 329 328 328 326 324 321 319 318 317 316 314 310 307 306 306 306 305 305 303 302 302
324 326 325 328 328 329 329 329 328 327 327 327 327 326 324 323 320 318 317 315 311 309 306 305 305 304 304 303 303 303 302 301
326 326 328 330 329 328 327 327 326 327 323 323 325 325 323 320 317 316 312 309 307 306 305 304 302 302 302 301 303 302 301 302
325 329 330 329 328 327 327 325 321 321 321 321 322 322 321 319 317 311 308 307 306 305 304 302 302 302 302 301 301 301 300 300
330 330 329 328 328 326 322 320 319 319 319 320 318 315 315 315 312 308 307 306 306 304 303 303 303 302 302 301 300 300 300 300
331 329 328 327 326 321 320 319 318 317 317 316 314 313 312 310 308 307 306 305 304 303 303 303 302 303 302 301 300 300 300 299
330 328 326 323 321 320 319 318 316 315 315 313 312 312 311 309 307 306 305 304 303 304 303 303 302 302 301 301 300 300 299 299
329 327 322 321 321 319 318 316 316 316 312 312 313 311 309 308 307 306 305 304 304 303 303 303 303 302 302 300 298 299 299 299
328 325 323 321 322 321 318 317 316 312 313 313 313 310 309 307 306 305 304 304 304 303 303 303 302 302 302 301 297 296 297 298
327 326 326 324 325 321 320 315 314 314 314 313 312 310 308 307 306 305 305 304 304 303 302 301 300 299 299 299 301 299 295 295
328 328 327 326 325 323 317 316 316 315 314 314 312 310 309 308 306 305 305 303 301 300 298 298 298 298 298 300 300 299 298 296
329 328 326 327 324 321 318 317 316 315 314 313 312 310 309 306 305 303 301 299 298 297 297 296 296 297 298 298 300 298 297 297
329 329 327 325 320 318 317 316 315 314 313 311 307 304 303 301 301 300 299 298 297 296 296 296 296 297 298 298 298 297 297 296
329 326 322 320 318 318 317 314 312 310 309 306 304 304 302 300 299 298 297 297 296 296 296 297 297 296 296 296 296 296 295 295

GFSFLT2_925_thetae_048.txt.gz
Theta_e
329 329 327 323 320 317 315 313 312 316 314 313 312 312 312 313 314 314 315 314 315 314 316 317 316 316 316 316 316 314 313 313
322 318 322 323 320 316 314 313 316 315 313 313 313 312 313 313 314 315 315 316 316 315 317 318 317 316 316 315 315 313 312 311
320 319 324 322 319 316 314 316 316 315 314 314 316 317 315 313 314 315 317 319 318 318 318 317 316 315 315 313 312 311 311 309
321 327 326 322 319 317 317 316 316 317 322 324 325 325 322 316 316 318 319 319 319 318 317 316 315 314 311 310 310 308 307 305
329 329 324 319 316 318 318 318 319 324 325 326 326 326 323 319 321 321 321 320 318 316 315 315 312 309 308 307 305 305 304 303
330 328 322 318 318 319 319 320 323 325 327 327 328 326 326 325 321 323 319 316 315 314 313 310 307 306 305 304 304 303 302 302
331 324 319 317 319 320 323 324 325 328 329 329 329 327 326 323 321 318 316 315 315 313 310 307 306 304 304 302 302 302 302 301
328 324 320 319 321 325 327 328 329 329 329 328 328 326 323 320 317 316 315 314 310 308 306 304 302 301 301 301 302 301 301 300
331 325 322 323 324 326 327 329 329 328 327 327 327 325 322 319 317 315 313 310 308 306 305 302 301 301 301 301 301 300 300 300
326 324 324 324 326 328 329 328 327 325 324 324 324 324 321 318 317 312 309 307 306 304 303 303 302 302 302 301 301 300 300 299
326 327 329 329 328 328 327 325 323 321 321 321 322 321 320 318 311 308 307 306 305 303 303 303 302 302 302 301 301 300 299 299
327 329 328 327 326 324 321 320 319 318 318 318 317 316 314 310 308 307 306 304 303 303 303 302 302 302 302 301 301 300 299 299
326 329 328 327 324 322 319 318 318 317 317 316 314 312 311 309 307 306 305 304 303 303 303 302 302 302 301 301 300 300 299 299
327 329 327 326 325 324 321 320 318 317 314 312 311 311 309 308 307 305 305 304 303 303 303 302 302 302 302 300 297 299 298 299
328 328 328 326 325 321 320 318 316 313 312 312 312 310 309 308 307 307 305 304 304 303 302 301 300 299 298 299 297 296 295 299
327 327 327 324 321 320 319 316 313 313 312 312 312 309 309 307 306 304 304 304 303 302 300 298 297 297 297 297 297 299 295 296
327 327 325 323 321 322 318 317 317 314 313 313 312 310 309 307 305 305 304 303 301 299 297 296 296 296 296 297 298 299 298 295
327 327 325 325 322 323 321 318 315 314 313 313 311 309 308 307 306 304 303 301 299 297 296 295 295 295 296 297 298 298 297 297
328 326 326 326 324 322 322 316 316 315 314 313 310 308 305 303 302 301 299 297 296 295 295 295 296 297 296 297 297 297 297 297
327 327 327 325 326 324 322 317 316 315 314 313 309 304 303 301 302 299 297 296 295 295 295 296 296 295 295 295 295 295 294 295

GFSFLT2_925_thetae_051.txt.gz
Theta_e
332 330 326 321 319 314 313 311 316 318 315 312 312 313 314 314 314 314 315 314 315 317 317 316 316 316 315 315 313 312 311 310
326 322 321 319 321 313 312 314 317 314 312 312 312 313 314 314 315 315 316 315 316 317 317 317 316 315 313 312 311 310 309 308
322 320 317 317 314 312 312 315 316 313 313 313 313 314 315 315 316 318 317 317 317 317 317 316 315 314 311 310 308 307 306 305
316 316 316 319 318 314 314 318 315 313 314 315 317 315 315 315 317 319 318 318 318 317 316 315 314 312 309 306 304 304 303 304
319 320 315 322 321 319 317 317 315 316 317 322 323 320 316 318 319 320 320 318 316 315 315 312 309 307 306 305 304 303 302 302
325 323 325 325 318 317 318 317 318 320 322 325 326 324 319 319 320 320 318 316 315 314 311 307 306 305 304 302 302 302 302 301
328 328 326 322 318 319 318 318 320 323 324 327 327 326 324 320 322 320 316 314 314 310 307 305 302 301 300 301 302 301 301 301
328 329 323 319 316 320 319 321 323 326 328 328 328 327 326 322 320 316 314 312 309 307 305 303 300 300 301 301 301 300 300 299
329 330 322 319 318 320 321 324 326 329 328 328 327 325 323 320 316 314 312 308 306 305 303 301 301 301 301 301 300 299 299 299
330 326 322 319 320 322 325 327 329 328 327 327 326 324 319 317 315 312 308 306 306 304 302 302 302 302 302 301 300 300 299 298
328 327 322 322 322 325 326 328 328 327 325 325 323 320 317 316 313 309 306 306 304 303 302 302 302 302 302 301 301 300 298 298
328 329 323 324 325 327 328 327 324 323 322 321 321 318 316 314 309 307 306 305 304 303 302 302 302 302 301 301 300 299 299 299
327 325 323 325 327 326 325 323 321 319 319 320 319 317 313 309 308 306 305 305 304 303 302 302 302 301 301 300 299 299 299 298
326 326 327 327 327 325 322 320 318 317 317 315 314 313 310 308 307 307 306 305 303 303 303 302 302 300 299 298 296 298 298 298
326 327 327 327 326 324 320 318 317 315 314 313 313 311 310 309 307 306 305 304 303 303 302 300 299 298 297 297 295 295 295 298
325 326 327 326 325 323 321 319 317 317 316 313 311 311 309 307 306 305 304 304 303 301 299 297 296 296 296 297 297 297 295 294
324 324 325 325 325 323 320 319 319 318 315 312 312 310 308 307 306 305 304 304 300 298 297 296 295 295 295 296 296 297 297 294
324 324 325 326 324 322 320 320 318 315 313 311 312 310 307 306 304 304 302 300 299 297 296 295 295 295 296 297 297 297 297 296
324 323 323 324 323 321 320 321 317 316 313 312 311 308 306 304 302 301 300 297 296 295 295 295 295 296 296 295 295 295 296 296
325 324 324 323 323 322 322 321 319 316 313 312 312 308 304 301 302 302 296 297 300 297 294 295 295 294 293 294 294 294 293 294

GFSFLT2_925_thetae_054.txt.gz
Theta_e
332 329 324 319 316 316 318 322 324 320 319 316 314 314 313 313 314 314 315 316 316 316 316 315 315 314 313 311 310 308 308 310
319 317 319 319 319 316 315 325 318 315 314 314 314 315 315 315 315 314 316 317 317 316 316 315 313 312 310 309 308 307 305 307
325 320 317 314 314 317 319 317 314 314 314 315 315 315 315 315 316 315 316 317 317 317 316 314 312 309 307 307 306 305 304 306
318 316 318 316 318 316 311 316 315 314 315 315 316 315 316 317 317 317 318 317 317 315 314 314 312 308 305 304 303 302 303 303
318 317 317 315 317 310 314 317 315 315 316 316 315 315 316 317 318 318 318 317 315 313 313 311 309 306 304 303 303 302 301 301
316 315 315 312 316 313 316 315 315 316 317 320 318 316 317 318 319 319 318 315 313 313 310 307 305 303 301 301 301 301 301 300
317 314 313 318 320 316 317 316 316 318 321 325 324 319 318 319 320 317 315 313 312 308 306 303 301 300 300 301 300 300 299 298
320 318 322 322 320 317 317 317 318 321 322 325 326 325 323 320 319 315 313 312 308 306 303 301 300 300 300 300 300 299 298 299
326 327 327 324 320 318 319 318 320 323 326 327 328 325 325 321 319 314 312 308 307 305 302 301 301 300 300 300 300 300 298 299
328 328 328 324 320 319 319 320 322 326 328 328 328 326 325 319 315 313 309 307 306 304 302 301 301 300 301 300 300 300 298 298
328 328 328 323 320 319 320 321 325 327 327 326 325 323 320 318 315 312 308 306 305 303 302 302 301 301 301 301 300 299 298 298
328 328 327 322 319 320 322 325 328 327 326 325 324 320 317 316 313 309 306 305 304 303 302 301 301 301 301 301 300 299 298 298
326 328 325 321 322 323 325 326 326 325 323 322 321 319 316 314 311 307 306 305 304 302 302 302 301 300 300 299 299 299 298 298
326 327 327 324 322 323 325 326 324 321 320 319 318 317 315 311 309 307 305 305 303 303 303 302 301 298 297 297 295 296 298 298
326 327 328 325 323 324 324 323 320 317 317 317 317 314 311 309 307 306 305 304 303 303 302 301 299 297 296 295 292 293 294 296
326 325 326 323 323 324 324 323 318 317 317 316 315 312 310 308 306 305 304 304 303 302 299 297 296 295 295 296 296 296 294 294
326 325 325 324 324 325 324 321 319 318 317 315 313 311 309 308 306 305 304 303 301 298 296 295 294 294 294 295 295 296 296 294
324 324 324 324 324 324 323 321 318 318 316 313 311 311 307 306 305 304 303 301 299 297 295 294 294 295 295 296 296 296 296 295
324 323 323 324 324 323 322 320 319 319 315 313 311 311 308 306 305 303 300 299 299 298 297 295 294 295 295 294 294 295 295 295
324 323 323 322 322 323 322 320 320 317 315 313 311 311 309 304 301 300 299 299 301 300 295 294 294 294 292 292 293 293 293 293

GFSFLT2_925_thetae_057.txt.gz
Theta_e
325 320 319 317 319 327 322 323 327 321 323 318 317 316 316 316 315 315 315 315 316 315 315 314 313 312 311 309 308 307 312 313
325 324 319 314 318 323 325 325 323 322 317 315 314 314 314 314 316 316 315 315 315 315 314 313 312 311 308 307 305 305 310 311
322 320 317 313 312 318 324 324 318 318 315 315 314 316 315 316 317 316 316 316 315 314 313 312 310 307 306 305 305 305 309 310
320 318 316 316 314 314 314 319 318 314 315 315 315 315 316 315 316 317 316 315 312 312 311 309 307 305 304 304 303 302 302 303
315 314 314 314 313 315 321 320 316 315 315 315 316 316 316 316 317 317 315 314 314 313 310 307 305 304 302 301 301 301 301 301
319 320 322 317 316 319 320 315 314 314 315 315 315 316 317 317 317 316 315 314 314 312 308 305 302 300 300 300 300 300 299 298
321 323 323 321 319 319 316 314 314 314 316 316 315 315 317 318 318 316 315 313 311 309 306 303 300 300 300 299 299 299 297 299
320 322 320 320 316 314 317 314 314 316 318 321 319 317 318 319 318 316 313 310 309 307 303 301 300 300 299 299 299 298 298 299
321 318 313 317 318 315 317 317 316 317 321 324 325 322 318 319 317 314 311 308 307 304 302 301 300 300 299 299 299 298 298 297
324 321 321 325 321 317 317 317 318 320 322 323 324 325 323 320 317 313 309 307 306 304 302 301 301 301 301 301 300 299 298 297
326 326 326 326 323 319 318 318 319 321 325 327 327 326 324 321 317 312 308 307 305 304 302 301 302 302 302 301 300 300 298 297
327 328 327 327 323 320 319 320 320 323 326 327 325 325 323 318 314 311 308 307 304 303 302 301 302 302 301 301 301 300 299 298
327 328 328 328 323 321 321 322 323 326 327 325 324 321 320 316 313 310 307 306 305 303 302 302 302 301 302 301 300 299 299 298
326 326 327 327 323 320 320 321 323 326 326 324 322 319 316 315 313 309 307 305 304 302 302 303 302 299 300 299 300 299 299 299
326 326 326 325 322 319 320 322 323 323 321 320 318 316 315 313 312 309 306 304 304 303 303 302 302 299 296 297 298 298 297 297
325 326 326 326 325 321 321 322 322 320 318 319 317 315 314 312 309 306 304 304 303 303 302 300 297 298 297 297 297 297 297 297
325 325 326 326 326 323 321 321 322 320 319 318 315 313 311 309 306 305 304 304 303 303 300 297 295 296 296 296 297 297 297 297
325 325 325 324 324 322 321 321 320 319 317 315 314 312 310 308 306 305 304 303 302 299 297 297 295 295 294 295 296 296 296 296
325 325 325 324 322 321 322 322 320 319 318 318 314 310 309 308 307 304 303 302 298 299 298 297 295 294 294 296 295 295 295 295
325 325 325 324 322 321 324 324 321 318 319 318 315 312 310 307 305 304 302 299 300 302 299 295 294 294 293 292 294 294 294 294

GFSFLT2_925_thetae_060.txt.gz
Theta_e
328 326 326 322 319 320 323 329 329 327 325 325 319 319 318 317 316 315 315 315 315 315 315 314 312 310 309 308 307 312 314 314
325 326 322 318 314 314 321 327 328 325 324 320 319 318 316 316 315 315 315 315 315 315 314 312 310 308 307 306 307 310 311 312
319 320 319 318 317 317 318 325 323 321 317 316 317 320 320 319 320 316 315 315 315 314 312 309 307 306 305 305 309 309 309 310
318 319 317 315 316 315 319 318 324 318 316 320 321 320 321 322 320 316 315 314 313 311 308 308 309 309 306 305 306 305 305 305
318 317 317 320 323 323 321 324 319 316 318 321 322 322 321 321 318 316 314 313 311 309 311 311 309 307 305 305 305 304 304 303
318 317 317 317 318 317 315 314 312 319 322 322 323 322 322 321 319 318 315 314 313 312 311 308 306 305 305 305 304 303 303 303
317 319 317 316 318 321 321 321 320 320 322 322 322 322 322 321 319 317 315 314 313 311 309 307 306 305 304 304 303 303 303 305
320 320 320 321 322 324 322 321 321 322 322 322 323 322 322 321 318 316 314 314 312 310 309 307 306 305 304 304 303 302 303 305
321 321 323 322 322 323 322 321 321 320 322 325 322 321 321 320 318 316 314 312 310 309 308 307 306 304 304 303 303 302 302 302
322 322 323 324 322 322 321 321 320 320 323 326 327 324 323 320 317 315 312 310 310 309 309 308 306 305 305 304 303 302 302 301
322 321 322 326 326 322 322 322 321 322 325 327 329 328 323 320 318 315 311 311 308 309 309 308 307 306 305 305 304 303 302 300
323 323 324 328 328 325 322 323 322 324 326 328 329 327 323 321 318 314 311 311 311 309 309 307 307 307 305 305 305 304 302 302
326 326 327 329 328 324 321 322 323 324 326 328 326 325 322 321 318 313 311 311 311 310 309 308 307 306 307 307 305 303 303 302
326 328 329 329 327 323 321 321 323 323 326 325 325 323 321 319 316 312 310 312 310 309 308 308 308 306 306 305 309 306 303 302
327 328 329 328 328 324 322 322 324 324 325 325 323 321 320 318 314 311 310 311 310 309 309 308 309 306 303 303 308 308 304 302
327 328 329 329 328 326 323 321 321 323 325 325 324 320 318 316 312 310 310 310 310 309 308 308 306 305 301 299 301 301 303 303
329 327 328 329 328 327 325 323 321 323 326 324 322 318 314 311 310 309 308 309 309 308 307 305 301 298 298 300 300 300 299 300
330 329 329 329 329 328 328 327 325 325 323 323 322 319 316 313 309 308 308 309 309 307 305 301 299 299 297 297 298 298 299 298
331 330 329 329 330 329 329 328 327 324 323 322 321 318 314 311 308 307 309 309 307 305 299 300 301 299 296 297 297 297 297 297
331 331 331 329 329 329 328 327 326 323 322 322 321 317 313 311 309 309 309 306 303 300 300 301 299 295 296 296 296 296 296 296

GFSFLT2_925_thetae_063.txt.gz
Theta_e
328 329 325 324 324 324 324 326 329 329 327 325 325 324 324 325 324 320 316 316 315 315 314 313 311 309 307 306 313 314 316 317
329 327 327 322 318 316 319 323 326 327 324 321 321 319 318 317 317 316 315 315 315 314 314 312 309 307 306 310 311 312 313 315
321 322 322 320 321 319 315 323 326 323 320 317 317 318 316 319 319 315 315 316 315 314 313 310 307 305 305 308 309 309 310 312
320 320 318 320 319 317 317 320 323 324 321 319 320 320 323 322 316 315 315 315 314 313 312 311 311 310 308 308 308 308 307 307
319 318 318 319 319 319 322 322 324 321 320 321 320 323 323 321 318 317 315 314 312 311 312 313 312 310 308 308 307 306 306 306
319 318 318 319 319 321 323 324 323 321 323 322 322 323 322 321 320 319 317 316 314 316 315 312 310 309 308 307 306 306 305 306
318 318 320 321 321 322 322 322 321 322 322 323 323 323 324 321 321 319 318 318 317 316 313 311 310 308 307 306 306 306 306 309
318 319 318 321 319 318 316 317 318 320 323 323 324 323 324 322 321 320 319 318 317 316 314 312 310 309 307 306 305 305 306 308
319 318 319 319 321 323 322 321 320 321 322 323 324 323 324 323 322 320 319 318 317 315 313 311 310 308 307 306 306 305 305 305
318 317 320 322 323 323 321 320 321 322 322 324 324 323 324 324 323 321 318 317 316 315 313 313 310 309 308 307 307 305 304 304
322 321 322 322 321 322 322 322 321 320 322 325 326 324 325 324 322 321 318 316 315 314 314 313 311 309 309 309 309 307 305 304
323 322 323 323 324 322 322 322 321 320 322 324 327 328 327 325 323 321 318 317 315 314 315 313 311 311 309 308 310 308 307 305
323 322 322 325 325 323 321 321 322 322 324 325 328 328 328 327 325 322 318 317 316 315 315 312 311 311 311 311 310 308 307 306
324 323 323 326 326 325 321 319 320 321 323 326 328 328 327 325 325 322 318 317 317 315 314 313 312 311 311 310 313 310 307 306
326 326 325 326 325 325 322 320 320 322 323 325 327 327 326 325 324 321 318 316 315 314 314 313 312 311 309 308 311 310 308 307
326 327 327 327 327 326 324 321 320 321 323 324 326 325 324 324 323 320 316 314 315 314 313 313 312 312 308 303 302 303 307 308
328 327 327 328 328 327 327 324 322 322 323 324 326 325 324 323 321 317 314 313 313 313 312 312 311 310 304 301 303 303 305 303
330 329 328 328 329 329 329 327 326 322 322 327 327 325 323 321 318 315 313 313 311 311 312 311 307 302 301 301 300 302 301 301
331 331 329 329 329 330 330 329 329 327 326 327 325 325 322 320 316 314 312 311 310 311 310 308 301 301 302 301 299 300 298 299
332 332 331 330 331 331 331 331 331 330 328 325 324 324 323 321 318 313 310 309 310 310 307 302 301 302 301 296 299 297 297 299

GFSFLT2_925_thetae_069.txt.gz
Theta_e
330 330 330 325 322 331 330 329 333 331 330 332 334 332 328 321 318 315 314 315 314 311 308 306 311 315 315 313 316 317 316 313
326 325 325 325 323 322 320 321 330 333 333 333 333 332 328 320 316 315 315 315 314 311 308 306 311 312 312 310 317 316 316 312
322 324 324 324 323 320 318 318 325 326 332 332 332 330 325 317 316 315 316 316 315 310 307 306 309 308 309 309 313 315 314 310
321 322 324 323 320 319 315 318 325 326 326 329 330 326 319 316 315 315 316 315 313 310 309 310 309 308 308 308 308 310 309 307
321 321 319 320 318 317 316 317 323 325 326 324 321 318 316 315 315 316 315 314 312 312 312 312 309 308 308 307 306 307 306 305
320 321 320 318 317 318 320 320 323 321 320 320 320 317 315 315 316 315 315 314 314 314 313 311 309 308 306 307 306 306 305 306
320 321 321 319 318 319 319 324 321 324 320 323 321 318 315 316 316 315 315 314 315 315 314 312 308 307 306 305 305 307 309 308
320 320 320 319 319 322 322 324 321 324 321 322 322 321 318 315 317 317 316 316 316 316 316 312 309 308 306 306 306 306 309 310
320 320 319 319 319 318 322 322 324 323 324 323 322 321 318 319 320 319 318 318 318 317 314 312 309 309 307 306 306 306 306 306
320 320 318 317 316 317 322 321 322 324 324 324 322 323 322 322 321 320 319 318 318 317 314 312 310 309 308 306 306 305 305 304
319 319 318 320 318 316 320 321 322 322 322 323 324 324 323 323 322 321 320 319 318 316 314 313 311 309 308 307 307 307 306 306
319 320 319 318 318 318 319 319 318 320 322 321 320 323 324 323 323 322 320 319 318 317 315 313 313 311 309 309 308 309 307 307
318 318 317 319 319 316 315 316 321 321 320 323 322 322 322 324 323 324 322 320 318 317 316 315 314 311 310 310 309 310 309 307
317 315 316 320 317 317 322 321 320 322 321 323 323 323 322 323 323 324 322 321 319 317 316 315 315 312 311 311 308 310 309 308
316 318 319 322 322 323 322 323 322 321 321 320 321 325 325 324 325 324 324 322 322 318 316 315 314 313 311 311 308 307 307 308
319 319 322 324 322 321 322 322 323 322 320 322 322 323 325 325 326 325 326 325 323 319 317 316 315 313 312 311 308 306 304 305
322 323 324 324 325 322 322 322 321 322 322 321 322 326 326 326 326 326 325 325 322 320 318 317 315 314 312 308 306 306 305 304
324 323 323 322 322 324 325 322 322 321 322 322 322 325 327 327 326 325 324 324 323 320 317 317 316 314 313 310 307 305 305 304
323 323 323 322 322 324 324 325 323 321 320 322 323 326 327 327 326 325 324 324 323 319 318 316 315 314 313 311 307 305 303 302
324 324 325 324 323 324 325 324 325 322 321 321 323 325 326 326 325 324 324 323 320 319 315 314 313 312 311 308 305 304 303 303

GFSFLT2_925_thetae_072.txt.gz
Theta_e
328 329 328 327 327 329 330 327 336 334 334 332 329 327 323 316 314 314 313 310 308 308 313 314 310 312 318 318 316 313 310 311
326 326 328 327 325 324 325 321 328 334 333 331 328 324 319 315 314 314 313 310 307 306 311 313 309 309 316 318 316 314 309 310
323 323 324 323 323 323 321 320 323 330 333 329 326 323 317 315 315 315 313 309 307 307 311 310 309 308 314 317 315 313 309 308
322 321 322 322 321 319 318 317 322 326 330 329 325 320 316 315 316 315 313 309 306 307 308 308 309 308 307 313 312 310 307 308
321 321 320 320 319 317 318 319 321 324 324 325 325 318 315 315 315 315 314 310 309 311 311 309 308 307 307 309 309 307 306 308
320 320 320 318 317 319 318 317 320 323 324 323 323 316 315 315 316 315 313 312 312 313 310 309 308 307 306 306 306 306 305 308
320 320 319 319 317 318 320 322 322 317 316 324 319 316 315 316 315 315 314 314 314 314 313 310 308 306 306 305 306 307 307 306
320 319 318 318 318 316 320 324 322 323 323 319 317 315 315 316 316 315 315 315 316 315 315 311 308 307 305 305 306 308 309 307
321 320 318 319 320 321 322 322 322 320 321 320 316 315 315 315 316 316 316 316 317 315 315 312 309 308 306 305 305 306 307 309
320 320 319 319 319 320 324 322 324 321 321 322 320 317 315 316 317 317 317 318 317 316 315 311 309 309 307 306 306 305 305 306
321 320 320 319 321 323 323 323 324 322 323 322 321 318 317 319 319 319 318 318 318 317 316 313 310 309 308 307 306 306 306 305
321 319 319 319 319 321 321 323 324 324 324 324 322 323 321 322 321 320 320 319 318 317 316 313 312 311 308 308 307 306 306 306
320 319 318 318 317 319 321 321 322 321 323 323 324 323 323 323 323 321 321 319 319 318 315 315 314 312 310 308 307 307 306 306
319 319 319 319 317 316 319 320 321 321 320 321 321 321 321 323 323 322 321 321 319 318 317 316 314 314 309 309 309 309 308 307
318 319 318 318 318 317 318 318 318 321 321 320 321 321 321 322 323 323 323 322 320 318 318 316 315 314 311 310 309 310 307 308
316 317 317 318 320 316 317 317 320 320 321 320 321 322 322 323 322 322 322 323 322 322 320 318 315 314 311 311 309 307 306 307
316 315 316 317 319 318 319 321 322 321 320 320 321 320 321 323 324 323 323 324 324 323 322 319 316 315 314 308 306 307 308 305
315 315 316 319 321 321 321 321 321 322 322 321 320 320 321 321 324 325 325 326 325 325 323 320 318 316 315 313 311 308 306 306
316 318 318 320 322 322 321 321 320 320 321 322 321 320 322 323 324 325 326 325 325 324 323 320 318 316 315 314 311 310 309 307
320 319 320 321 322 323 323 323 320 320 320 320 321 321 321 322 325 326 326 324 324 324 323 319 317 317 315 314 312 310 309 305

GFSFLT2_925_thetae_078.txt.gz
Theta_e
332 331 330 330 330 328 329 329 328 330 330 330 331 327 327 327 328 325 318 317 318 319 318 314 312 310 309 311 313 314 315 317
330 330 328 327 328 327 327 330 328 330 328 330 329 327 326 325 325 318 314 317 319 319 318 316 314 313 310 311 312 314 315 316
329 328 327 327 327 327 329 328 329 329 325 327 326 324 322 320 319 313 312 315 319 319 318 317 315 313 310 309 309 312 314 315
327 327 327 327 325 327 329 329 328 326 325 326 324 320 315 311 312 313 311 310 311 315 318 317 316 314 311 308 307 311 313 315
324 324 325 325 325 328 327 326 326 325 322 324 320 315 311 308 308 310 310 309 310 312 316 316 315 313 310 307 308 310 312 314
322 322 322 321 324 325 326 325 323 322 322 322 318 314 310 308 307 309 309 309 309 310 312 313 312 311 310 307 307 309 311 313
321 321 321 319 321 324 325 323 321 320 320 322 315 313 310 308 306 308 309 309 308 307 307 308 309 311 308 306 307 309 309 311
320 320 319 319 320 323 324 323 322 322 322 318 315 314 312 308 306 308 310 309 308 308 308 307 308 307 307 307 306 309 309 310
320 319 317 319 320 321 322 322 321 322 322 316 315 315 316 314 309 309 312 310 310 310 308 306 306 306 306 306 306 308 309 309
321 319 318 318 320 321 322 322 323 323 321 316 316 316 317 313 315 312 313 314 315 311 307 306 305 305 305 305 306 307 307 307
320 319 318 318 319 320 321 322 322 322 321 318 316 316 315 317 315 313 315 315 314 311 310 309 307 306 305 305 306 306 306 306
321 320 318 318 319 321 320 321 321 321 317 317 319 315 315 315 314 313 315 315 314 314 313 310 309 308 306 306 305 305 306 306
321 320 319 319 320 321 321 320 321 320 317 314 320 316 315 315 314 314 315 314 316 315 313 312 311 310 308 307 306 306 306 306
321 320 319 320 320 321 322 322 322 319 318 319 318 316 315 315 315 315 315 316 317 316 316 314 313 311 309 307 306 308 307 306
321 320 320 319 319 320 321 322 322 321 321 321 320 318 317 316 315 317 318 317 318 317 317 316 315 312 311 311 308 309 308 308
320 320 319 319 319 319 321 320 321 322 321 320 321 321 321 320 318 319 321 319 319 319 318 318 316 314 311 310 311 311 309 310
319 320 319 319 318 318 319 320 321 321 322 321 322 322 322 322 323 322 322 321 321 321 320 318 317 315 314 311 310 310 310 309
319 319 319 319 318 317 318 320 319 321 321 321 321 321 321 321 322 322 322 322 322 322 321 320 319 316 315 315 314 311 308 307
318 318 318 318 318 317 317 318 319 319 320 320 319 319 319 320 320 320 321 321 321 322 322 321 320 318 317 316 316 314 314 312
317 316 316 317 318 318 317 317 317 317 318 317 317 317 317 318 319 319 319 319 320 321 321 322 321 321 320 318 317 316 314 312

GFSFLT2_925_thetae_081.txt.gz
Theta_e
332 330 329 327 325 325 327 325 327 327 326 331 332 331 329 329 328 327 326 326 326 320 310 308 310 311 313 315 317 318 318 318
331 331 328 327 329 328 326 326 325 328 332 330 331 330 329 329 328 325 321 322 320 314 311 310 310 311 313 314 316 317 317 317
331 331 330 329 328 330 330 330 328 332 332 330 328 330 329 328 326 317 318 319 318 314 312 312 310 312 312 313 315 316 317 317
328 330 329 328 328 327 327 328 329 329 332 328 328 328 327 326 317 317 319 319 318 316 313 313 314 315 314 313 315 316 316 317
326 327 327 327 326 327 327 328 329 330 327 326 325 325 324 317 315 316 321 320 320 318 315 316 316 314 313 313 315 315 316 316
323 324 326 327 326 327 328 328 328 326 325 321 323 321 319 316 312 312 316 321 322 320 317 315 312 309 307 308 314 314 315 316
322 322 323 323 326 326 325 327 325 325 324 322 319 316 315 314 311 310 310 312 316 316 316 314 312 309 307 308 312 314 315 315
321 322 321 321 324 324 323 322 322 324 322 319 314 310 310 311 309 310 309 311 312 314 314 313 313 310 307 309 313 313 314 315
321 321 321 320 323 323 323 322 321 322 320 316 311 308 306 308 309 309 309 308 308 310 310 311 311 310 311 310 309 311 312 313
320 320 320 320 322 323 322 321 320 318 319 316 311 308 307 307 308 309 308 308 307 307 307 309 308 309 310 309 309 310 311 311
320 319 319 319 321 322 322 321 322 319 319 316 313 312 309 307 308 310 310 310 310 309 307 306 306 306 306 305 306 307 309 310
320 319 318 319 320 321 322 321 321 322 319 315 315 313 309 308 309 312 314 314 312 311 308 305 306 306 305 305 305 306 306 306
320 319 318 319 319 321 322 322 321 322 320 317 316 315 314 312 313 317 316 314 314 315 309 308 307 306 307 307 306 305 305 306
321 320 319 319 319 321 321 321 322 321 317 319 317 315 315 314 315 314 315 314 315 314 311 311 312 308 311 311 315 311 308 307
321 320 320 319 320 320 320 320 321 319 318 316 317 318 316 315 315 315 314 314 315 315 314 314 315 312 310 315 316 319 313 310
321 320 320 319 319 320 319 319 320 319 318 315 314 315 318 315 315 315 314 315 316 316 316 316 315 316 310 310 312 313 318 319
321 320 320 319 319 320 320 321 320 319 319 317 317 318 317 315 315 315 315 317 318 318 318 317 317 316 315 313 311 312 312 315
319 319 321 321 320 320 320 321 321 320 319 319 320 321 320 320 320 319 318 319 320 321 320 319 318 317 316 314 315 315 312 312
318 318 320 320 319 319 319 320 320 320 321 321 320 321 321 321 321 321 322 322 322 322 322 321 320 318 318 316 315 314 314 314
317 319 320 320 320 318 317 318 319 319 319 320 320 320 321 320 321 321 320 320 320 321 321 321 320 320 319 317 316 318 317 313